STARLINK-1008, 44714

Orbit data source: Space-Track

STARLINK-1008, 44714 is a payload satellite owned by SpaceX/Seattle (US) in LEO that was launched on Mon, 11 Nov 2019 UTC via an FALCON 9 launch vehicle from the Air Force Eastern Test Range (AFETR). Payload-class satellites include a variety of spacecraft equipped with specific instruments for various scientific and technological missions. These include communications satellites like Starlink; space stations such as the ISS; scientific satellites like the Hubble; Earth observation satellites from companies like Planet Labs, Umbra, and HawkEye 360; GPS; miniature CubeSats for education and research; and military/defense satellites.

Loading next visibility...
Identifier
44714, 2019-074B
Orbit
LEO
Country
Flag of USUS
Related business
Manufacturer
SpaceX/Seattle
Mission
Operational Commercial Communications
Bus & Motor
STARLINK, Unknown motor
Mass
260 kg wet, ~248 kg dry
Launch date (UTC)
2019-11-11 (6 years ago)
Launch vehicle
FALCON 9
Launch site
Air Force Eastern Test Range (AFETR)
Object type
Payload
Rocket body
Debris
Shape & HBR
Box + 1 Pan, 10.1 m
Radar Cross Section
13.562 m², Large (>1 m²)

Expand to show TLE details & history
Last TLE update: 16 hours ago

TLE from 16 hours ago
0 STARLINK-1008
1 44714U 19074B   25286.94558716 -.00000234  00000-0  31608-5 0  9992
2 44714  53.0529 125.3773 0001287  88.9892 271.1244 15.06405471326630
Epoch: 2025-10-13T22:41Z
TLE epoch observation values (Epoch: 2025-10-13T22:41:38.730Z)
Latitude
-0.00006°
Longitude
122.22479°
Altitude
548.056 km
Speed
7.589 km/s
True Right ascension
08h 21m 30s
True Declination
0° 00' 00"
Sunlit
Object was in daylight at epoch
Visualization orbit readout
Latitude
Unknown
Longitude
Unknown
Altitude
Unknown
Speed
Unknown
Apparent Right ascension
Unknown
Apparent Declination
Unknown
Sunlit
N/A
Visualization observer readout
Local Sidereal Time
08:50:20
Azimuth
Unknown
Elevation
Unknown
Doppler factor
Unknown
Orbital elements
Apogee altitude
548.357 km
Perigee altitude
546.574 km
Semi-major axis
6,925.603 km
Eccentricity
0.00013
Inclination
53.0529°
RAAN
125.3773°
Arg. of periapsis
88.9892°
True anomaly
271.10965°
Mean anomaly
271.1244°
Eccentric anomaly
271.11703°
Mean motion
3.7658 °/min
Orbital period
95.6 mins
BSTAR
0.0000031608
Loading maneuver chart data...
Computing Atmospheric mass density...

Documentation

Showing up to 5 results
|